STARLINK-33819, 63494

Orbit data source: Space-Track

STARLINK-33819, 63494 is a payload satellite owned by SpaceX/Seattle (US) in LEO that was launched on Mon, 07 Apr 2025 UTC via an FALCON 9 launch vehicle from the Air Force Western Test Range (AFWTR). Payload-class satellites include a variety of spacecraft equipped with specific instruments for various scientific and technological missions. These include communications satellites like Starlink; space stations such as the ISS; scientific satellites like the Hubble; Earth observation satellites from companies like Planet Labs, Umbra, and HawkEye 360; GPS; miniature CubeSats for education and research; and military/defense satellites.

Loading next visibility...
Identifier
63494, 2025-071B
Orbit
LEO
Country
Flag of USUS
Related business
Manufacturer
SpaceX/Seattle
Mission
Operational Commercial Communications
Bus & Motor
STARLINK V2MO, Unknown motor
Mass
575 kg wet, ~530 kg dry
Launch date (UTC)
2025-04-07 (5 months ago)
Launch vehicle
FALCON 9
Launch site
Air Force Western Test Range (AFWTR)
Object type
Payload
Rocket body
Debris
Shape & HBR
Box + 1 Pan, 14.5 m
Radar Cross Section
41.120 m², Large (>1 m²)

Expand to show TLE details & history
Last TLE update: 8 hours ago

TLE from 8 hours ago
0 STARLINK-33819
1 63494U 25071B   25259.19830628  .00027640  00000-0  94252-3 0  9995
2 63494  53.1574 232.6104 0004395  93.7158 266.4346 15.30171953 26009
Epoch: 2025-09-16T04:45Z
TLE epoch observation values (Epoch: 2025-09-16T04:45:33.662Z)
Latitude
0.00003°
Longitude
165.82811°
Altitude
476.387 km
Speed
7.629 km/s
True Right ascension
15h 30m 26s
True Declination
0° 00' 00"
Sunlit
Object was in daylight at epoch
Visualization orbit readout
Latitude
Unknown
Longitude
Unknown
Altitude
Unknown
Speed
Unknown
Apparent Right ascension
Unknown
Apparent Declination
Unknown
Sunlit
N/A
Visualization observer readout
Local Sidereal Time
05:01:13
Azimuth
Unknown
Elevation
Unknown
Doppler factor
Unknown
Orbital elements
Apogee altitude
478.568 km
Perigee altitude
472.543 km
Semi-major axis
6,853.693 km
Eccentricity
0.00044
Inclination
53.1574°
RAAN
232.6104°
Arg. of periapsis
93.7158°
True anomaly
266.38434°
Mean anomaly
266.4346°
Eccentric anomaly
266.40947°
Mean motion
3.82522 °/min
Orbital period
94.11 mins
BSTAR
0.00094252
Loading maneuver chart data...
Computing Atmospheric mass density...
Loading historical data...
Loading historical data...
Loading historical data...
Loading historical data...
Loading historical data...
Loading historical data...
Loading historical data...

Documentation

Showing up to 5 results
|